Location: Bannatyne
(13.0833°N, 59.5333°W)
Time: 00:03:10
(UTC+00:00)

Transit 4A - Pass Details

Date: 19 January 2021
Orbit: 866 x 978 km, 66.8° (Epoch: 03 March)

Event Time Altitude Azimuth Distance (km) Brightness Sun altitude
Rises 08:51:52 0° 8° (N) 3,552 10.9 -22.3°
Reaches altitude 10° 08:55:50 10° 33° (NNE) 2,583 10.4 -21.4°
Maximum altitude 08:58:45 14° 63° (ENE) 2,300 10.5 -20.7°
Drops below altitude 10° 09:01:38 10° 93° (E) 2,548 11.3 -20.0°
Sets 09:05:28 0° 118° (ESE) 3,467 12.4 -19.2°
